SCP
0 0 0 0 0 0 0 0 0 0 0 0 0 0 -0 -0 -0 0 0 0 0 0 0 0 0 0 0 0 0 0 0 0 0 0 0 0 0 0 0 0 0 0 0 0
0 0 0 0 0 0 0 0 0 0 0 -0 0 -0 -0 -0 -0 -0 0 0 0 0 0 0 0 0 0 0 0 0 0 0 0 0 0 0 0 0 0 0 0 0 0 0
0 0 -0 0 0 0 0 0 0 0 -0 -0 -0 -0 -0 -0 -0 -0 -0 -0 -0 0 0 0 0 0 0 0 0 0 0 0 0 0 0 0 0 0 0 0 0 0 0 0
0 0 0 0 0 0 0 0 0 0 0 -0 -0 -0 -0 -0 -0 -0 0 0 0 0 0 0 0 0 0 0 0 0 0 0 0 0 0 0 0 0 0 0 0 0 0 0
0 0 0 0 0 0 0 0 0 0 -0 0 0 0 0 -0 -0 0 0 0 0 0 0 0 0 0 0 0 0 0 0 0 0 0 0 0 0 0 0 0 0 0 0 0
0 0 0 0 0 0 0 0 0 0 0 0 0 0 0 -0 0 0 0 0 0 0 0 0 0 0 0 0 0 0 0 0 0 0 0 0 0 0 0 0 0 0 0 0
0 0 0 0 0 0 0 0 0 0 0 0 -0 0 0 0 0 0 0 0 0 0 0 0 0 0 0 0 0 0 0 0 0 0 0 0 0 0 0 0 0 0 0 0
0 0 0 0 0 0 0 0 0 0 0 0 0 0 0 0 0 0 0 0 0 0 0 0 0 0 0 0 0 0 0 0 0 0 0 0 0 0 0 0 0 0 0 0
0 0 0 0 0 0 0 0 0 0 0 0 -0 0 0 0 0 0 0 0 0 0 0 0 0 0 0 0 0 0 0 0 0 0 0 0 0 0 0 0 0 0 0 0
0 0 0 0 0 0 0 0 0 0 0 -0 -0 0 0 0 0 0 0 0 0 0 0 0 0 0 0 0 0 0 0 0 0 0 0 0 0 0 0 0 0 0 0 0
0 0 0 0 0 0 0 0 0 0 0 -0 0 0 0 0 0 0 0 0 0 0 0 0 0 0 0 0 0 0 0 0 0 0 0 0 0 0 0 0 0 0 0 0
0 0 0 0 0 0 0 0 0 0 -0 0 0 0 0 0 0 0 0 0 0 0 0 0 0 0 0 0 0 0 0 0 0 0 0 0 0 0 0 0 0 0 0 0
0 0 0 0 -0 -0 -0 -0 -0 -0 0 0 0 0 0 0 0 0 0 0 0 0 0 0 0 0 0 0 0 0 0 0 0 0 0 0 0 0 0 0 0 0 0 0
0 0 0 -0 -0 -0 0 -0 0 0 0 0 0 0 0 0 0 0 0 0 0 0 0 0 0 0 0 0 0 0 0 0 0 0 0 0 0 0 0 0 0 0 0 0
0 -0 -0 0 0 0 0 0 1 1 0 0 0 0 0 0 0 0 0 0 0 0 0 0 0 0 0 0 0 0 0 0 0 0 0 0 0 0 0 0 0 0 0 0
0 0 0 0 0 0 1 1 1 0 0 0 0 0 0 0 0 0 0 0 0 0 0 0 0 0 0 0 0 0 0 0 0 0 0 0 0 0 0 0 0 0 0 0
0 0 0 0 0 1 0 0 0 -0 0 0 0 0 0 0 0 0 0 0 0 0 0 0 0 0 0 0 0 0 0 0 0 0 0 0 0 0 0 0 0 0 0 0
0 0 0 0 0 0 0 0 0 0 0 0 0 0 0 0 0 0 0 0 0 0 0 0 0 0 0 0 0 0 0 0 0 0 0 0 0 0 0 0 0 0 0 0
0 0 0 0 0 0 0 0 0 0 0 0 0 0 0 0 0 0 0 0 0 0 0 0 0 0 0 0 0 0 0 0 0 0 0 0 0 0 0 0 0 0 0 0
0 0 0 0 0 0 0 0 0 0 0 0 0 0 0 0 0 0 0 0 0 0 0 0 0 0 0 0 0 0 0 0 0 0 0 0 0 0 0 0 0 0 0 0
0 0 0 0 0 0 0 0 0 0 0 0 0 0 0 0 0 0 0 0 0 0 0 0 0 0 0 0 0 0 0 0 0 0 0 0 0 0 0 0 0 0 0 0
0 0 0 0 0 0 0 0 0 0 0 0 0 0 0 0 0 0 0 0 0 0 0 0 0 0 0 0 0 0 0 0 0 0 0 0 0 0 0 0 0 0 0 0
0 0 0 0 0 0 0 0 0 0 0 0 0 0 0 0 0 0 0 0 0 0 0 0 0 0 0 0 0 0 0 0 0 0 0 0 0 0 0 0 0 0 0 0
0 0 0 0 0 0 0 0 0 0 0 0 0 0 0 0 0 0 0 0 0 0 0 0 0 0 0 0 0 0 0 0 0 0 0 0 0 0 0 0 0 0 0 0
0 0 0 0 0 0 0 0 0 0 0 0 0 0 0 0 0 0 0 0 0 0 0 0 0 0 0 0 0 0 0 0 0 0 0 0 0 0 0 0 0 0 0 0
0 -0 0 0 0 0 0 0 0 0 0 0 0 0 0 0 0 0 0 0 0 0 0 0 0 0 0 0 0 0 0 0 0 0 0 0 0 0 0 0 0 0 0 0
0 0 0 0 0 0 0 0 0 0 0 0 0 0 0 0 0 0 0 0 0 0 0 0 0 0 0 0 0 0 0 0 0 0 0 0 0 0 0 0 0 0 0 0
Wind_Speed_500mb
8 10 4 11 15 12 12 10 13 10 12 7 8 15 18 8 4 6 6 12 19 27 22 43 32 42 44 42 26 20 18 18 21 20 23 26 29 32 33 33 31 34 41 44
8 8 13 5 12 26 16 8 4 16 7 8 11 15 19 11 9 9 15 21 24 33 30 33 34 44 40 39 26 17 18 19 23 24 23 29 33 36 38 41 42 46 51 54
8 9 10 10 10 3 6 11 6 10 11 14 6 25 22 13 8 3 8 15 17 10 15 33 41 46 36 28 17 14 15 20 20 16 21 26 31 39 44 49 53 56 58 61
5 8 7 11 7 5 17 11 8 10 17 30 33 26 11 12 17 16 15 18 20 20 21 35 37 22 16 13 9 10 18 22 23 24 26 29 35 41 45 51 55 57 58 57
6 6 8 10 8 8 8 5 2 10 12 19 24 18 15 21 19 16 18 18 21 23 28 24 19 16 12 2 8 17 21 24 24 25 31 36 41 44 44 46 53 54 49 40
4 6 9 8 8 7 5 9 24 15 13 11 38 2 12 31 26 20 17 18 22 25 29 27 25 16 6 3 7 13 21 25 23 25 30 37 40 41 41 44 42 42 44 41
4 5 11 7 6 2 9 12 39 35 29 26 26 27 22 35 26 19 17 21 20 20 22 18 14 12 8 4 6 12 13 17 22 30 29 33 34 33 34 35 36 36 36 40
4 4 4 27 11 9 9 15 31 56 51 48 52 23 33 33 27 21 29 26 14 17 20 16 13 9 12 6 11 18 21 27 32 29 29 33 34 30 27 33 40 43 39 34
5 8 10 12 27 23 32 17 16 21 30 27 41 13 30 34 27 30 31 26 29 27 27 24 18 15 16 28 27 20 25 29 29 32 32 26 27 31 36 43 40 38 35 35
4 9 13 18 18 23 26 7 16 27 17 26 29 12 10 37 40 31 36 41 37 33 28 21 15 14 18 22 25 27 26 27 29 27 24 29 30 36 38 34 31 35 38 41
4 10 8 19 22 23 24 21 25 32 14 30 22 4 5 33 45 35 36 38 38 32 24 14 7 7 9 16 20 22 22 28 25 26 30 33 36 35 32 35 29 34 38 39
11 33 29 25 28 34 33 25 28 11 16 30 15 19 19 37 37 37 43 41 32 20 3 9 8 10 12 15 15 15 23 27 30 29 35 32 29 29 30 31 26 39 37 36
10 24 28 28 23 30 21 21 19 13 34 28 29 21 26 41 40 38 30 21 14 17 15 8 9 13 17 15 12 14 27 25 25 31 32 25 29 30 26 26 30 36 41 40
20 15 23 22 14 22 27 28 21 38 24 18 23 31 37 39 32 25 24 22 18 10 7 9 14 15 14 10 10 16 24 22 22 30 23 26 25 27 22 31 39 44 43 43
9 16 12 12 20 25 21 11 44 31 27 28 26 26 24 24 27 26 23 15 9 4 7 11 12 13 15 12 8 11 17 18 18 27 27 36 28 20 20 27 38 41 48 51
10 16 24 21 27 22 26 25 19 14 17 20 24 25 23 26 27 23 16 10 5 6 10 10 12 14 10 6 3 8 14 14 12 25 26 28 36 33 26 30 36 43 49 53
11 20 31 49 41 32 31 43 42 24 17 16 25 28 30 29 25 20 17 11 7 11 12 11 13 13 9 3 2 6 9 12 10 23 27 24 28 28 22 24 31 42 51 50
23 27 19 25 29 30 32 13 24 38 36 36 31 31 31 26 22 21 15 9 8 11 10 9 13 16 11 1 3 4 6 12 9 21 22 26 19 14 16 25 39 51 50 43
15 7 21 29 36 27 19 16 43 33 27 38 40 37 31 26 23 18 12 7 6 9 8 8 11 17 17 4 5 1 4 9 7 14 17 20 15 15 24 38 52 57 48 40
6 23 22 25 19 15 19 32 45 38 36 40 37 36 33 27 21 16 13 5 3 4 8 10 13 20 20 9 8 6 2 7 5 18 20 20 21 25 34 43 50 50 42 40
15 29 13 10 8 20 13 36 36 33 31 33 35 35 29 24 22 21 17 13 8 6 9 13 16 22 18 8 5 6 7 15 8 15 21 25 26 32 40 48 49 38 34 33
16 26 25 15 8 6 17 30 38 36 37 36 34 32 31 28 28 24 18 14 12 14 14 12 16 19 14 5 3 4 11 16 11 16 23 26 31 36 41 48 42 35 31 35
4 19 15 16 14 11 21 32 40 39 44 39 37 34 33 28 25 26 24 17 19 19 18 17 17 17 14 7 5 9 16 17 15 23 29 29 33 33 37 44 41 35 37 40
28 10 16 20 15 19 25 29 37 43 39 35 33 26 28 32 33 34 31 32 29 28 24 20 19 14 15 14 13 18 23 19 23 26 30 36 37 31 35 40 44 35 37 41
26 28 10 18 23 19 30 33 30 31 33 34 33 35 36 37 41 35 38 36 34 34 30 29 26 20 17 18 17 22 25 28 33 36 34 39 38 26 34 41 43 45 49 49
34 38 18 9 4 10 11 9 12 18 27 33 38 41 44 45 47 50 49 46 43 43 41 34 30 27 25 26 28 30 31 32 37 42 42 42 32 33 37 42 44 49 55 52
34 39 27 22 26 28 28 13 23 19 22 24 44 57 54 56 56 54 48 44 43 43 42 38 35 31 31 33 35 37 38 43 44 42 40 39 30 35 43 48 49 51 54 50
Wind_Direction_500mb
212 237 5 352 328 244 201 183 169 220 199 270 186 194 229 250 10 358 337 289 284 249 258 226 236 228 233 227 245 284 257 275 285 286 300 308 313 325 326 322 320 320 318 320
328 357 7 328 300 57 31 316 351 72 360 293 151 208 239 233 261 278 313 334 315 287 262 219 229 224 227 226 250 272 266 308 299 285 293 297 307 314 316 322 323 323 322 323
279 356 10 355 339 50 92 88 71 175 195 164 171 218 222 237 184 180 59 40 42 60 208 228 214 220 228 230 262 273 316 338 346 320 301 303 311 310 311 319 324 324 324 327
220 39 16 245 321 31 108 54 350 92 146 174 173 196 200 184 148 130 101 82 83 102 143 182 186 211 222 240 268 326 329 338 337 334 327 318 316 315 316 321 323 320 318 320
129 158 271 309 336 58 43 301 257 94 183 164 180 205 198 165 151 132 117 115 107 123 145 159 162 170 173 197 332 325 327 328 332 329 325 323 323 324 321 318 321 330 333 339
110 149 218 258 321 36 160 328 5 350 81 143 200 159 252 165 153 143 130 119 127 129 135 146 142 141 121 38 324 333 337 334 332 333 330 323 318 323 341 345 351 359 351 350
78 226 276 235 314 59 85 274 352 34 27 9 302 244 198 164 161 161 162 146 130 138 145 152 146 132 96 296 314 333 332 311 321 333 328 330 348 359 0 359 356 3 13 5
123 90 11 3 4 80 179 64 63 55 40 334 316 271 182 178 167 163 170 161 159 142 144 138 135 135 48 268 317 304 312 329 335 346 356 356 357 7 9 22 17 13 13 21
98 206 277 66 124 137 125 120 98 324 308 238 276 211 212 186 175 175 193 184 162 154 153 150 172 206 276 345 341 333 328 331 342 352 5 36 31 31 22 11 11 16 25 36
121 295 228 176 167 168 161 191 286 306 195 218 254 114 113 193 175 176 184 173 169 165 163 165 199 244 302 327 334 335 340 351 4 37 49 33 33 16 12 29 37 39 32 27
78 264 262 221 222 217 216 251 260 199 269 212 182 100 78 161 171 176 177 172 167 165 166 176 237 304 355 345 338 337 3 21 56 35 36 27 24 40 32 37 37 34 33 30
219 200 210 249 266 247 253 283 162 227 207 166 167 131 133 141 160 160 151 147 144 149 149 105 66 24 359 356 355 16 45 55 37 43 25 39 45 53 32 34 38 30 33 21
230 242 227 277 268 232 249 195 198 260 172 144 127 132 136 137 140 139 132 125 126 116 105 64 26 19 19 23 57 51 50 58 41 27 33 42 41 30 30 30 14 2 5 15
240 210 248 230 239 262 209 216 243 171 147 146 141 139 135 133 132 126 123 123 118 100 72 23 15 19 31 67 57 71 61 57 36 25 33 22 21 24 30 19 10 6 5 8
214 210 198 265 261 223 187 161 169 159 152 138 140 144 145 136 135 133 130 134 119 87 31 7 5 33 49 101 75 62 58 57 42 22 26 24 14 21 22 15 13 13 3 1
171 201 233 246 193 183 182 154 99 21 163 168 167 158 153 150 143 147 151 141 139 60 27 17 30 41 41 133 95 58 71 46 39 16 20 25 28 27 14 13 8 3 1 357
223 215 232 231 234 189 183 168 133 209 194 245 185 166 161 157 158 158 156 139 81 39 32 41 40 30 26 100 120 35 80 37 39 16 19 10 9 24 21 360 356 353 353 353
303 300 280 243 204 193 169 183 270 186 205 213 190 178 175 173 175 167 157 121 63 30 27 50 39 25 12 67 191 34 97 35 32 10 5 12 12 10 340 348 349 350 356 360
346 241 159 158 151 160 214 251 223 199 192 191 182 181 185 184 182 175 156 100 49 8 8 25 26 15 3 300 217 207 99 32 23 347 344 352 345 331 344 348 350 349 354 7
103 166 171 157 145 268 226 197 206 190 194 188 185 191 193 191 188 187 184 197 240 342 358 2 1 354 355 334 228 232 156 339 345 331 331 341 340 337 339 344 348 350 0 9
195 165 172 134 91 186 228 211 203 199 202 205 207 206 204 197 198 201 202 209 239 290 334 348 344 348 347 337 262 250 221 343 275 305 307 315 324 332 338 343 345 350 356 356
198 198 161 162 157 227 215 210 208 213 212 216 217 217 212 212 214 224 227 235 259 283 315 317 324 348 344 312 261 231 235 320 273 290 305 312 319 327 336 342 343 345 354 350
125 194 219 247 270 217 207 206 219 222 220 223 229 229 231 231 235 241 246 262 253 267 298 303 310 338 349 326 279 271 269 304 267 291 310 319 321 326 333 339 344 349 352 344
39 8 276 285 245 218 224 225 228 230 237 246 244 252 257 243 238 240 249 255 263 268 277 287 289 308 334 330 283 275 290 294 291 300 311 324 324 322 335 335 341 344 339 336
342 345 18 240 257 253 234 232 235 233 244 252 257 260 256 250 251 254 263 265 263 270 281 290 290 291 308 307 308 290 291 295 295 298 301 315 316 312 324 324 333 333 331 328
356 352 7 67 36 266 252 286 338 246 242 248 253 261 267 265 264 264 262 269 267 266 273 277 280 278 300 298 295 291 296 294 295 295 298 312 305 295 311 316 315 318 322 321
3 3 350 326 302 294 292 304 297 278 249 274 284 269 260 259 266 271 268 265 268 272 275 274 275 276 296 294 289 285 281 287 288 290 300 311 297 295 311 315 315 314 319 316
Wind_Speed_850mb
8 10 4 11 15 12 12 10 13 10 12 7 8 15 18 8 4 6 6 12 19 27 22 43 32 42 44 42 26 20 18 18 21 20 23 26 29 32 33 33 31 34 41 44
8 8 13 5 12 26 16 8 4 16 7 8 11 15 19 11 9 9 15 21 24 33 30 33 34 44 40 39 26 17 18 19 23 24 23 29 33 36 38 41 42 46 51 54
8 9 10 10 10 3 6 11 6 10 11 14 6 25 22 13 8 3 8 15 17 10 15 33 41 46 36 28 17 14 15 20 20 16 21 26 31 39 44 49 53 56 58 61
5 8 7 11 7 5 17 11 8 10 17 30 33 26 11 12 17 16 15 18 20 20 21 35 37 22 16 13 9 10 18 22 23 24 26 29 35 41 45 51 55 57 58 57
6 6 8 10 8 8 8 5 2 10 12 19 24 18 15 21 19 16 18 18 21 23 28 24 19 16 12 2 8 17 21 24 24 25 31 36 41 44 44 46 53 54 49 40
4 6 9 8 8 7 5 9 24 15 13 11 38 2 12 31 26 20 17 18 22 25 29 27 25 16 6 3 7 13 21 25 23 25 30 37 40 41 41 44 42 42 44 41
4 5 11 7 6 2 9 12 39 35 29 26 26 27 22 35 26 19 17 21 20 20 22 18 14 12 8 4 6 12 13 17 22 30 29 33 34 33 34 35 36 36 36 40
4 4 4 27 11 9 9 15 31 56 51 48 52 23 33 33 27 21 29 26 14 17 20 16 13 9 12 6 11 18 21 27 32 29 29 33 34 30 27 33 40 43 39 34
5 8 10 12 27 23 32 17 16 21 30 27 41 13 30 34 27 30 31 26 29 27 27 24 18 15 16 28 27 20 25 29 29 32 32 26 27 31 36 43 40 38 35 35
4 9 13 18 18 23 26 7 16 27 17 26 29 12 10 37 40 31 36 41 37 33 28 21 15 14 18 22 25 27 26 27 29 27 24 29 30 36 38 34 31 35 38 41
4 10 8 19 22 23 24 21 25 32 14 30 22 4 5 33 45 35 36 38 38 32 24 14 7 7 9 16 20 22 22 28 25 26 30 33 36 35 32 35 29 34 38 39
11 33 29 25 28 34 33 25 28 11 16 30 15 19 19 37 37 37 43 41 32 20 3 9 8 10 12 15 15 15 23 27 30 29 35 32 29 29 30 31 26 39 37 36
10 24 28 28 23 30 21 21 19 13 34 28 29 21 26 41 40 38 30 21 14 17 15 8 9 13 17 15 12 14 27 25 25 31 32 25 29 30 26 26 30 36 41 40
20 15 23 22 14 22 27 28 21 38 24 18 23 31 37 39 32 25 24 22 18 10 7 9 14 15 14 10 10 16 24 22 22 30 23 26 25 27 22 31 39 44 43 43
9 16 12 12 20 25 21 11 44 31 27 28 26 26 24 24 27 26 23 15 9 4 7 11 12 13 15 12 8 11 17 18 18 27 27 36 28 20 20 27 38 41 48 51
10 16 24 21 27 22 26 25 19 14 17 20 24 25 23 26 27 23 16 10 5 6 10 10 12 14 10 6 3 8 14 14 12 25 26 28 36 33 26 30 36 43 49 53
11 20 31 49 41 32 31 43 42 24 17 16 25 28 30 29 25 20 17 11 7 11 12 11 13 13 9 3 2 6 9 12 10 23 27 24 28 28 22 24 31 42 51 50
23 27 19 25 29 30 32 13 24 38 36 36 31 31 31 26 22 21 15 9 8 11 10 9 13 16 11 1 3 4 6 12 9 21 22 26 19 14 16 25 39 51 50 43
15 7 21 29 36 27 19 16 43 33 27 38 40 37 31 26 23 18 12 7 6 9 8 8 11 17 17 4 5 1 4 9 7 14 17 20 15 15 24 38 52 57 48 40
6 23 22 25 19 15 19 32 45 38 36 40 37 36 33 27 21 16 13 5 3 4 8 10 13 20 20 9 8 6 2 7 5 18 20 20 21 25 34 43 50 50 42 40
15 29 13 10 8 20 13 36 36 33 31 33 35 35 29 24 22 21 17 13 8 6 9 13 16 22 18 8 5 6 7 15 8 15 21 25 26 32 40 48 49 38 34 33
16 26 25 15 8 6 17 30 38 36 37 36 34 32 31 28 28 24 18 14 12 14 14 12 16 19 14 5 3 4 11 16 11 16 23 26 31 36 41 48 42 35 31 35
4 19 15 16 14 11 21 32 40 39 44 39 37 34 33 28 25 26 24 17 19 19 18 17 17 17 14 7 5 9 16 17 15 23 29 29 33 33 37 44 41 35 37 40
28 10 16 20 15 19 25 29 37 43 39 35 33 26 28 32 33 34 31 32 29 28 24 20 19 14 15 14 13 18 23 19 23 26 30 36 37 31 35 40 44 35 37 41
26 28 10 18 23 19 30 33 30 31 33 34 33 35 36 37 41 35 38 36 34 34 30 29 26 20 17 18 17 22 25 28 33 36 34 39 38 26 34 41 43 45 49 49
34 38 18 9 4 10 11 9 12 18 27 33 38 41 44 45 47 50 49 46 43 43 41 34 30 27 25 26 28 30 31 32 37 42 42 42 32 33 37 42 44 49 55 52
34 39 27 22 26 28 28 13 23 19 22 24 44 57 54 56 56 54 48 44 43 43 42 38 35 31 31 33 35 37 38 43 44 42 40 39 30 35 43 48 49 51 54 50
Wind_Direction_850mb
212 237 5 352 328 244 201 183 169 220 199 270 186 194 229 250 10 358 337 289 284 249 258 226 236 228 233 227 245 284 257 275 285 286 300 308 313 325 326 322 320 320 318 320
328 357 7 328 300 57 31 316 351 72 360 293 151 208 239 233 261 278 313 334 315 287 262 219 229 224 227 226 250 272 266 308 299 285 293 297 307 314 316 322 323 323 322 323
279 356 10 355 339 50 92 88 71 175 195 164 171 218 222 237 184 180 59 40 42 60 208 228 214 220 228 230 262 273 316 338 346 320 301 303 311 310 311 319 324 324 324 327
220 39 16 245 321 31 108 54 350 92 146 174 173 196 200 184 148 130 101 82 83 102 143 182 186 211 222 240 268 326 329 338 337 334 327 318 316 315 316 321 323 320 318 320
129 158 271 309 336 58 43 301 257 94 183 164 180 205 198 165 151 132 117 115 107 123 145 159 162 170 173 197 332 325 327 328 332 329 325 323 323 324 321 318 321 330 333 339
110 149 218 258 321 36 160 328 5 350 81 143 200 159 252 165 153 143 130 119 127 129 135 146 142 141 121 38 324 333 337 334 332 333 330 323 318 323 341 345 351 359 351 350
78 226 276 235 314 59 85 274 352 34 27 9 302 244 198 164 161 161 162 146 130 138 145 152 146 132 96 296 314 333 332 311 321 333 328 330 348 359 0 359 356 3 13 5
123 90 11 3 4 80 179 64 63 55 40 334 316 271 182 178 167 163 170 161 159 142 144 138 135 135 48 268 317 304 312 329 335 346 356 356 357 7 9 22 17 13 13 21
98 206 277 66 124 137 125 120 98 324 308 238 276 211 212 186 175 175 193 184 162 154 153 150 172 206 276 345 341 333 328 331 342 352 5 36 31 31 22 11 11 16 25 36
121 295 228 176 167 168 161 191 286 306 195 218 254 114 113 193 175 176 184 173 169 165 163 165 199 244 302 327 334 335 340 351 4 37 49 33 33 16 12 29 37 39 32 27
78 264 262 221 222 217 216 251 260 199 269 212 182 100 78 161 171 176 177 172 167 165 166 176 237 304 355 345 338 337 3 21 56 35 36 27 24 40 32 37 37 34 33 30
219 200 210 249 266 247 253 283 162 227 207 166 167 131 133 141 160 160 151 147 144 149 149 105 66 24 359 356 355 16 45 55 37 43 25 39 45 53 32 34 38 30 33 21
230 242 227 277 268 232 249 195 198 260 172 144 127 132 136 137 140 139 132 125 126 116 105 64 26 19 19 23 57 51 50 58 41 27 33 42 41 30 30 30 14 2 5 15
240 210 248 230 239 262 209 216 243 171 147 146 141 139 135 133 132 126 123 123 118 100 72 23 15 19 31 67 57 71 61 57 36 25 33 22 21 24 30 19 10 6 5 8
214 210 198 265 261 223 187 161 169 159 152 138 140 144 145 136 135 133 130 134 119 87 31 7 5 33 49 101 75 62 58 57 42 22 26 24 14 21 22 15 13 13 3 1
171 201 233 246 193 183 182 154 99 21 163 168 167 158 153 150 143 147 151 141 139 60 27 17 30 41 41 133 95 58 71 46 39 16 20 25 28 27 14 13 8 3 1 357
223 215 232 231 234 189 183 168 133 209 194 245 185 166 161 157 158 158 156 139 81 39 32 41 40 30 26 100 120 35 80 37 39 16 19 10 9 24 21 360 356 353 353 353
303 300 280 243 204 193 169 183 270 186 205 213 190 178 175 173 175 167 157 121 63 30 27 50 39 25 12 67 191 34 97 35 32 10 5 12 12 10 340 348 349 350 356 360
346 241 159 158 151 160 214 251 223 199 192 191 182 181 185 184 182 175 156 100 49 8 8 25 26 15 3 300 217 207 99 32 23 347 344 352 345 331 344 348 350 349 354 7
103 166 171 157 145 268 226 197 206 190 194 188 185 191 193 191 188 187 184 197 240 342 358 2 1 354 355 334 228 232 156 339 345 331 331 341 340 337 339 344 348 350 0 9
195 165 172 134 91 186 228 211 203 199 202 205 207 206 204 197 198 201 202 209 239 290 334 348 344 348 347 337 262 250 221 343 275 305 307 315 324 332 338 343 345 350 356 356
198 198 161 162 157 227 215 210 208 213 212 216 217 217 212 212 214 224 227 235 259 283 315 317 324 348 344 312 261 231 235 320 273 290 305 312 319 327 336 342 343 345 354 350
125 194 219 247 270 217 207 206 219 222 220 223 229 229 231 231 235 241 246 262 253 267 298 303 310 338 349 326 279 271 269 304 267 291 310 319 321 326 333 339 344 349 352 344
39 8 276 285 245 218 224 225 228 230 237 246 244 252 257 243 238 240 249 255 263 268 277 287 289 308 334 330 283 275 290 294 291 300 311 324 324 322 335 335 341 344 339 336
342 345 18 240 257 253 234 232 235 233 244 252 257 260 256 250 251 254 263 265 263 270 281 290 290 291 308 307 308 290 291 295 295 298 301 315 316 312 324 324 333 333 331 328
356 352 7 67 36 266 252 286 338 246 242 248 253 261 267 265 264 264 262 269 267 266 273 277 280 278 300 298 295 291 296 294 295 295 298 312 305 295 311 316 315 318 322 321
3 3 350 326 302 294 292 304 297 278 249 274 284 269 260 259 266 271 268 265 268 272 275 274 275 276 296 294 289 285 281 287 288 290 300 311 297 295 311 315 315 314 319 316